Temp
19 19 19 19 19 18 18 17 16 15 14 13 14 15 16 16 17 18 17 17 17 18 20 20 19 19 19 19 19 19 19 18 18 18 18 17 17 17 17 16 15 15 15 15 15 14 14 14 13 13 13 13 12 12 12 12 12 12 11 10 10 10 10 10 9 9 9 9 10 10 10 11 12 12 12 12 12 12 12 12 12 11 11 12 12 13 13
19 19 19 19 18 18 18 18 18 15 13 12 13 14 14 14 14 15 16 16 16 18 20 20 19 19 19 19 19 18 18 18 18 18 18 18 18 18 17 16 16 15 15 15 15 14 14 14 13 13 13 12 12 12 12 12 12 12 11 10 10 10 10 9 9 9 10 10 10 10 10 11 12 12 12 12 12 12 11 11 11 11 11 11 11 12 13
19 19 19 18 18 18 18 18 17 14 11 11 11 11 11 12 12 13 13 14 16 19 20 20 19 19 18 18 18 18 18 18 18 18 18 18 18 18 17 17 16 16 16 15 15 15 14 14 13 13 13 12 12 12 12 12 12 12 11 10 10 10 10 9 9 9 9 10 10 10 11 12 12 12 12 12 12 12 11 10 10 10 10 11 11 12 12
18 19 19 18 19 18 17 17 16 13 11 12 12 11 11 12 13 13 13 15 18 20 20 19 18 18 18 18 18 18 18 18 18 18 18 18 18 17 17 17 16 16 16 16 15 14 14 14 13 13 12 12 12 12 12 12 12 12 12 11 10 10 10 10 9 9 9 10 10 10 11 11 11 11 12 12 12 11 11 10 10 10 10 10 11 11 12
18 19 19 18 19 18 17 17 17 16 14 13 13 12 12 12 14 15 16 19 20 20 20 19 19 19 18 19 19 19 19 19 18 18 18 18 18 17 16 16 16 16 16 15 15 14 14 13 13 12 12 12 12 12 12 12 12 12 12 11 10 10 10 9 9 9 9 9 10 10 11 11 11 11 11 11 11 10 10 10 9 9 9 9 10 11 11
18 19 19 18 18 17 18 19 19 18 16 15 15 15 15 14 15 17 19 20 20 19 19 19 19 19 19 19 19 19 19 19 18 18 18 18 17 17 16 16 16 16 15 15 14 14 13 13 12 12 12 12 12 12 12 12 12 12 12 11 10 10 9 9 9 8 9 9 10 10 10 10 11 11 11 10 10 9 9 9 9 9 9 9 9 10 10
18 19 19 17 17 18 19 19 18 18 18 17 17 17 18 17 17 17 18 19 20 20 20 19 19 19 18 18 18 18 18 18 18 18 18 17 17 16 16 16 16 16 15 14 14 14 13 13 12 12 12 12 12 12 12 12 12 12 12 11 10 9 9 8 8 8 9 9 9 9 9 10 11 11 10 9 9 8 9 9 9 9 8 8 8 9 9
18 18 17 16 17 20 20 18 17 16 17 17 17 18 19 20 19 18 18 19 20 20 20 20 19 18 18 18 18 18 18 18 18 18 18 17 17 16 16 16 15 15 15 14 14 13 13 12 12 12 12 12 12 12 12 12 12 12 12 11 10 9 9 8 8 8 8 9 9 9 9 10 11 10 9 9 9 8 8 9 9 8 9 8 8 8 8
18 18 18 18 19 19 19 19 18 18 18 18 18 18 19 21 20 19 19 20 20 20 19 19 19 18 18 18 19 19 19 18 18 18 18 17 17 16 16 16 15 15 14 14 13 13 13 12 12 12 12 12 12 12 12 12 12 12 12 11 10 9 9 9 8 8 8 9 9 10 10 10 10 10 9 9 9 8 9 9 9 9 9 9 9 8 8
18 17 18 18 17 18 19 20 20 19 19 19 19 19 19 20 21 20 20 20 20 20 19 18 18 18 18 19 19 19 18 18 18 17 17 17 16 16 16 15 15 14 14 13 13 13 13 12 12 12 12 12 12 12 12 12 12 12 12 11 10 10 9 9 8 8 8 9 9 10 10 10 9 9 10 10 9 9 9 9 9 9 9 9 9 9 8
18 17 17 17 17 18 19 19 19 19 19 19 19 18 18 20 21 20 20 20 20 19 18 18 18 18 18 19 19 18 18 18 18 17 17 17 16 16 15 15 15 14 13 13 13 13 13 12 12 12 12 12 12 12 12 12 12 12 11 10 10 10 9 9 9 8 8 8 9 9 9 9 9 9 10 10 10 10 10 10 10 9 9 9 9 9 8
18 17 17 18 18 19 19 19 19 19 18 18 18 17 18 20 21 20 20 20 19 19 18 18 18 18 19 19 18 17 18 18 17 17 17 17 16 16 15 15 14 14 13 13 13 13 13 12 12 12 12 12 12 12 12 12 11 11 11 10 10 10 10 9 9 9 9 8 8 8 8 9 9 9 9 9 9 10 10 10 10 9 9 9 9 9 9
18 17 16 17 18 18 18 18 18 18 18 17 17 17 19 20 21 20 20 20 19 19 18 18 19 19 19 18 17 17 17 17 17 17 17 16 16 16 15 14 14 14 13 13 13 13 12 12 12 12 12 12 12 12 12 11 11 11 11 11 10 10 10 10 9 9 9 9 8 8 8 8 9 9 9 9 9 10 10 10 10 9 9 9 10 10 9
18 17 16 16 17 17 16 16 17 17 17 17 17 18 20 21 20 20 20 19 19 19 19 19 19 20 19 18 17 17 17 17 17 17 17 16 16 15 15 14 14 14 14 13 13 13 12 12 12 12 12 12 12 12 12 11 11 11 10 11 11 11 10 10 10 9 9 9 9 9 9 9 9 9 10 10 9 9 10 10 10 10 10 10 10 10 10
17 17 16 15 16 16 16 16 17 17 18 18 19 19 20 20 20 20 20 19 19 19 19 19 19 19 18 18 17 17 17 17 17 17 17 16 16 15 14 14 14 14 14 13 13 13 12 12 12 12 12 12 12 12 11 11 11 10 10 11 11 10 10 10 10 10 9 9 9 9 9 9 10 10 10 10 10 10 10 10 10 10 10 10 10 10 10
17 17 16 17 17 18 17 17 18 18 19 19 19 19 19 20 20 20 20 20 19 19 19 19 19 19 19 18 17 17 17 17 17 17 17 16 16 15 15 14 14 14 14 14 13 13 13 12 12 12 12 12 12 12 11 11 11 11 11 11 11 10 10 10 10 10 10 9 9 9 10 10 10 10 10 10 10 10 10 10 11 11 11 11 11 11 10
18 18 18 19 19 19 19 18 18 19 19 18 18 18 19 19 20 20 20 20 20 19 19 19 19 19 19 18 18 17 17 17 17 17 17 16 16 16 15 15 14 14 14 14 13 13 13 12 12 12 12 12 12 11 11 11 11 11 11 11 11 10 10 10 10 10 10 10 9 10 10 10 10 10 10 10 10 10 10 10 11 11 11 11 11 11 11
18 18 18 19 18 19 19 19 19 19 19 19 19 18 18 19 20 20 20 20 20 19 19 19 19 19 19 18 18 17 17 17 17 17 17 16 16 15 15 15 14 14 14 14 13 13 13 12 12 12 12 12 12 11 11 11 11 11 11 11 11 11 10 10 10 10 10 10 10 10 10 10 10 10 10 10 10 10 10 10 10 10 10 10 10 10 10
17 17 18 18 18 18 19 19 19 19 19 19 19 18 18 19 19 20 20 20 20 19 19 19 19 19 19 18 18 18 17 17 17 17 17 16 16 15 15 15 14 14 14 14 14 14 13 13 13 12 12 12 12 11 11 11 11 11 11 11 11 11 10 10 10 10 10 10 10 10 10 10 10 10 10 10 9 9 9 9 10 10 10 9 10 10 10
17 18 19 19 19 19 19 19 19 19 19 20 20 19 18 18 19 19 19 19 19 19 19 19 19 19 19 18 18 18 17 18 18 17 17 16 16 15 15 14 14 14 14 14 14 14 13 13 13 12 12 12 11 11 11 11 11 11 11 11 11 11 10 10 10 10 10 10 10 10 10 10 10 10 9 10 9 8 8 7 8 9 9 9 9 9 9
17 18 19 20 19 19 20 20 20 20 20 20 20 19 19 19 18 18 18 19 19 19 19 19 19 19 19 18 18 18 18 18 18 17 17 16 16 15 15 14 14 14 14 14 14 14 14 13 13 12 12 12 11 11 11 11 11 11 11 11 11 11 11 11 11 11 10 10 10 10 10 10 9 9 8 8 9 8 7 6 6 6 7 7 7 8 9
17 18 19 19 19 18 19 20 20 20 20 19 19 19 19 19 18 18 18 18 18 19 19 19 19 19 19 18 18 18 18 18 18 17 17 16 16 15 15 14 14 14 14 14 14 14 14 13 13 12 12 12 12 11 11 11 11 11 11 11 11 11 11 11 11 11 11 11 10 10 10 10 10 9 7 7 8 7 6 6 5 5 5 6 5 6 7
18 19 19 19 18 18 19 19 19 20 20 19 19 19 19 19 19 18 18 18 18 18 18 19 19 19 19 19 18 18 18 18 17 17 16 16 16 15 15 14 14 14 14 14 14 14 13 13 13 13 12 12 12 12 11 11 11 11 11 11 11 12 12 11 10 10 11 11 11 11 11 11 11 10 9 8 7 7 7 6 6 5 5 5 5 5 6
18 18 19 19 18 18 18 19 19 19 19 19 19 19 19 19 19 19 18 18 19 19 18 18 18 19 19 19 18 18 18 18 17 16 16 16 16 15 15 15 15 14 14 14 14 13 13 13 13 13 13 12 12 12 12 11 11 11 11 11 11 12 12 11 10 10 11 11 11 11 11 11 11 11 11 10 9 8 7 7 7 6 6 5 5 5 5
17 18 18 19 19 18 18 19 19 19 19 19 19 19 19 19 19 19 19 19 19 20 19 18 18 19 19 19 18 18 18 18 17 16 16 15 15 15 15 15 15 15 14 14 14 14 14 13 13 13 13 13 12 12 12 11 11 11 11 11 11 11 11 11 11 11 11 11 11 11 11 11 11 11 11 11 11 9 8 7 7 7 7 6 6 6 5
18 18 18 18 18 18 18 18 19 19 20 20 19 19 19 18 17 18 19 19 20 20 20 20 19 18 18 19 18 18 18 17 16 16 16 16 15 15 15 15 15 15 15 14 14 14 14 13 13 13 13 13 12 12 12 12 11 11 11 11 11 11 11 11 11 11 11 11 11 11 11 11 11 11 11 11 11 11 10 9 8 8 7 7 7 6 6
18 18 18 17 17 18 18 19 19 19 20 20 19 19 19 19 18 18 18 19 19 20 20 20 19 18 18 18 18 18 18 17 16 16 16 16 16 16 15 15 15 15 15 14 14 14 13 13 13 13 13 13 13 12 12 12 11 11 11 11 11 11 10 10 10 11 11 11 11 11 11 11 11 11 11 11 11 11 11 11 11 10 9 9 8 7 6
18 19 18 17 17 17 18 19 19 19 19 19 19 19 19 18 18 18 18 18 19 19 19 19 19 18 18 18 18 17 17 17 16 16 16 16 16 16 16 15 15 15 15 14 14 14 13 13 13 13 13 13 13 12 12 12 11 11 11 11 11 11 10 10 10 11 11 11 11 11 11 11 11 11 11 11 11 11 11 11 11 11 11 10 9 9 8
18 18 19 18 18 18 19 19 19 19 19 18 19 19 19 18 18 17 18 18 19 18 18 18 18 18 18 18 18 18 18 17 17 17 17 17 16 16 16 15 15 15 14 14 14 14 14 14 14 13 13 13 13 12 12 12 12 11 11 11 11 11 11 11 11 11 11 11 11 10 10 10 11 11 11 11 11 11 11 11 11 11 11 11 10 10 10
18 18 18 18 18 18 18 18 18 18 18 18 19 19 19 18 17 17 18 19 19 18 19 19 18 18 18 18 18 18 18 18 17 17 17 17 17 16 16 15 15 15 15 14 14 14 14 14 14 14 14 13 13 13 12 12 12 12 11 11 11 11 11 11 11 11 11 11 10 10 10 10 11 11 11 11 11 11 12 11 11 11 11 11 11 11 11
18 18 18 18 18 18 18 18 18 18 18 18 19 19 19 18 17 17 18 19 19 19 19 19 18 18 18 18 18 18 18 18 18 17 17 17 17 16 16 15 15 15 15 15 15 15 14 14 14 14 14 14 13 13 12 12 12 12 12 11 11 11 10 10 10 10 11 11 11 10 11 11 11 11 11 11 11 12 12 12 11 12 12 12 12 11 11
17 17 17 18 19 18 18 18 18 17 18 18 18 18 18 18 17 17 18 18 18 18 19 19 19 18 18 18 18 18 18 18 18 18 17 17 17 16 15 15 15 15 15 16 16 15 15 15 14 14 14 14 13 13 12 12 12 12 12 12 12 11 10 9 9 10 10 11 11 11 11 11 11 11 11 11 12 12 12 12 12 12 12 12 12 11 11
16 16 16 17 17 17 17 18 18 17 17 17 18 18 18 18 18 17 18 18 18 18 18 18 18 18 18 18 18 18 18 18 18 17 17 17 17 16 15 15 15 15 15 15 16 15 15 15 15 14 14 14 13 13 12 12 12 13 13 12 12 12 10 9 9 10 10 10 11 11 11 11 11 12 12 12 12 12 12 12 12 12 12 12 12 11 10
16 16 16 16 16 16 16 17 17 17 17 17 17 18 18 18 18 18 18 18 18 18 18 18 18 18 18 18 18 18 18 18 18 18 17 17 17 17 16 15 15 15 15 15 15 15 15 15 15 14 14 14 14 13 13 12 12 13 13 13 13 12 11 10 10 10 11 11 11 11 11 11 11 12 12 12 12 12 12 12 12 12 12 12 12 12 10
17 16 16 16 16 16 16 16 16 16 16 16 16 17 17 17 17 17 17 17 18 18 18 17 16 17 18 18 18 18 18 17 18 18 18 17 17 17 16 16 15 15 15 14 14 15 15 15 14 14 14 14 13 13 12 12 13 13 13 13 12 12 12 12 11 11 11 12 12 12 12 12 12 12 12 12 12 12 12 12 12 12 12 12 12 12 11
17 16 16 16 16 16 16 16 16 15 15 15 15 16 16 16 17 17 17 17 17 18 18 17 16 16 17 17 18 18 18 17 18 18 18 18 18 17 17 16 16 15 15 15 14 15 15 15 15 14 14 14 13 13 12 12 13 13 13 13 12 12 12 12 12 12 12 12 12 12 12 12 12 11 11 11 12 12 12 12 12 12 12 12 12 12 12
17 16 16 16 16 16 16 16 15 15 15 15 15 15 15 16 16 16 17 16 16 17 18 18 17 16 16 17 17 17 17 17 17 17 17 18 18 17 17 17 16 16 16 15 15 15 15 15 15 15 14 13 13 13 13 12 13 13 13 13 13 12 12 12 12 12 12 12 12 12 12 12 11 11 11 11 12 12 12 12 12 12 12 12 12 12 12
16 16 16 16 16 16 16 15 14 14 14 14 14 14 14 14 15 16 16 17 17 16 17 17 17 17 16 16 17 17 17 17 17 17 17 17 18 17 17 17 17 17 16 16 15 15 15 15 15 15 14 14 13 13 13 13 13 13 13 13 13 13 13 12 13 13 13 13 12 12 12 12 12 12 12 12 12 12 12 12 12 12 12 12 12 12 12
16 16 16 16 16 16 16 15 14 14 14 14 14 14 14 13 14 15 16 17 17 16 16 17 17 17 17 17 17 17 17 17 16 16 17 17 17 17 17 17 17 17 17 16 16 15 15 15 15 15 15 14 14 13 13 13 13 13 12 12 12 12 12 13 13 13 13 13 13 12 12 12 12 12 13 12 12 12 12 11 11 11 11 12 12 12 12
16 16 16 16 16 16 16 16 16 15 15 15 15 15 15 14 14 15 16 16 17 17 16 16 16 16 16 16 17 17 17 17 16 15 15 15 15 16 16 17 16 16 15 15 15 15 14 14 15 14 15 15 15 14 14 13 13 13 12 12 12 12 12 13 13 13 13 13 13 12 12 12 12 12 12 12 12 12 12 12 11 11 12 12 12 12 12
16 16 16 16 16 15 15 15 16 16 16 16 16 15 15 15 15 16 16 17 16 16 15 15 15 16 16 16 17 17 17 16 15 14 14 15 15 15 16 16 16 15 14 14 14 14 14 13 13 14 14 14 14 14 14 14 13 13 13 12 12 12 13 13 13 13 13 13 12 12 12 12 12 12 12 12 12 12 11 11 11 11 12 12 12 12 12
16 16 16 16 16 15 15 15 15 15 16 16 16 15 15 15 15 15 16 16 16 14 14 13 14 15 15 15 16 16 16 15 14 13 13 14 14 15 16 16 15 14 14 14 14 14 13 13 13 13 13 14 14 14 14 14 14 13 13 13 12 12 13 13 13 12 12 12 12 12 12 12 12 12 12 12 12 11 10 10 10 10 11 12 12 12 11
16 16 16 16 16 16 15 15 15 15 15 15 15 15 14 14 14 15 15 15 15 14 13 13 13 13 14 14 15 16 16 15 14 13 13 13 14 14 15 15 14 13 13 14 14 14 14 14 14 13 13 13 13 14 14 14 13 13 13 12 12 12 12 12 12 12 11 11 11 11 12 12 12 12 12 12 12 10 10 9 10 10 11 11 12 11 11
15 15 16 16 16 15 15 15 15 15 15 15 15 14 14 14 14 15 15 16 15 14 13 13 13 13 13 13 14 15 16 15 14 14 14 14 14 13 13 13 13 13 13 13 13 13 13 14 14 14 13 12 12 12 12 12 12 12 12 12 11 11 11 11 11 10 10 10 11 11 12 12 12 12 12 12 11 10 9 9 10 10 11 11 11 11 10
15 15 15 15 15 15 15 15 15 14 14 14 14 14 13 13 13 14 15 15 15 14 13 13 12 12 11 12 13 14 14 14 14 15 15 16 15 13 12 11 12 13 13 13 13 13 13 13 13 13 12 12 11 11 10 10 10 10 10 10 10 10 10 10 10 9 9 10 10 10 11 11 11 11 11 11 10 9 9 9 9 10 10 10 10 10 10
15 15 15 15 15 15 15 14 14 13 13 14 14 14 13 13 13 13 13 14 14 14 13 13 12 12 11 11 12 12 11 12 12 13 14 14 14 13 12 12 12 12 13 13 12 12 12 12 12 12 12 12 11 10 10 10 10 10 10 10 10 10 10 9 9 9 9 9 9 9 9 9 9 9 9 9 9 8 8 8 8 8 8 8 8 8 8
15 15 15 15 15 15 14 13 13 13 13 13 13 14 13 13 12 12 12 13 13 13 13 13 12 12 12 11 11 10 10 10 10 11 12 12 12 12 12 12 12 12 12 12 11 11 11 11 11 12 12 11 11 10 10 10 10 10 10 10 10 9 9 8 8 8 7 7 7 7 7 8 8 8 8 7 7 7 6 6 7 7 7 7 7 7 7
15 15 15 15 14 14 13 13 12 12 12 12 12 12 13 13 12 12 12 12 12 12 12 12 12 12 12 12 12 11 11 11 11 11 11 11 12 12 12 12 12 12 11 11 11 11 11 11 11 11 11 10 10 10 10 10 9 9 9 8 8 7 7 7 6 6 6 6 6 6 6 7 7 6 6 6 6 6 6 6 6 6 6 6 6 7 7
14 15 15 15 15 14 13 13 13 12 11 11 10 11 11 12 12 13 12 12 12 12 12 12 12 11 11 12 12 12 12 13 13 12 11 11 11 11 11 11 11 11 11 11 11 10 10 10 10 10 10 10 9 9 8 8 8 7 7 7 6 6 6 6 6 6 6 6 6 6 5 5 5 5 5 5 5 5 5 5 5 5 5 5 5 6 6
14 14 15 15 15 15 14 14 13 12 11 11 11 10 10 11 11 12 12 12 12 12 12 12 12 11 11 11 12 12 12 12 12 11 11 11 11 11 11 11 11 10 10 10 9 8 8 9 9 9 9 8 8 7 7 7 6 6 6 6 6 6 5 5 5 5 5 5 5 5 5 4 4 4 4 4 4 4 4 4 4 4 4 4 4 4 4
14 14 14 15 15 14 14 14 13 12 11 10 10 11 10 10 10 11 12 12 13 14 14 13 12 12 12 12 12 12 12 11 11 11 10 10 10 10 10 10 10 9 9 9 8 7 7 8 8 8 7 7 7 6 6 6 6 6 5 5 5 5 4 4 4 4 4 4 4 4 3 3 3 3 3 3 3 3 3 3 3 3 3 3 3 3 3
13 13 14 14 14 14 14 14 13 12 11 10 10 10 10 10 10 10 11 12 13 14 15 14 13 13 12 12 12 11 11 11 11 10 10 9 9 9 9 9 9 8 8 8 8 7 7 7 7 7 7 6 6 6 5 5 5 5 4 4 4 4 4 4 3 3 3 3 2 2 2 2 2 2 2 2 1 2 2 2 2 2 2 2 2 2 1
Height
822 819 818 818 820 822 823 827 831 835 840 844 842 834 830 832 830 824 820 822 822 815 806 805 806 806 808 808 807 808 809 809 811 811 814 815 815 817 819 821 824 825 826 827 827 828 828 828 828 828 827 827 826 825 824 821 820 819 818 817 815 814 813 812 811 810 809 808 806 805 804 803 803 802 801 801 800 799 798 797 796 796 795 794 794 794 794
821 819 818 818 819 820 820 820 822 832 841 843 842 837 835 838 836 829 827 827 823 812 805 804 804 804 807 807 807 809 809 810 810 811 812 812 812 814 816 819 822 824 825 826 826 826 826 827 828 827 827 827 826 825 823 821 820 818 817 817 815 814 813 812 811 810 809 808 807 806 804 803 802 802 801 800 799 799 798 797 796 796 795 794 793 793 793
821 817 818 818 818 819 821 820 822 835 847 848 849 849 846 845 842 836 836 835 823 807 800 802 804 805 807 808 808 809 808 808 809 809 810 810 810 812 815 818 821 822 824 825 825 825 826 826 827 827 827 827 826 824 823 821 820 818 817 817 815 814 813 812 811 810 809 808 807 806 805 803 802 802 801 800 799 798 798 797 796 796 795 794 793 793 793
822 816 818 819 816 817 821 823 826 836 844 842 842 845 843 838 836 837 838 829 812 799 798 802 804 805 807 807 807 807 807 807 808 808 808 808 809 812 815 817 819 821 822 824 825 826 826 826 827 827 826 826 825 824 822 821 820 818 817 816 815 814 813 812 811 810 809 808 807 806 805 804 803 802 801 800 799 798 798 797 797 796 795 794 793 792 792
823 814 817 818 816 819 822 819 817 822 831 834 834 835 835 833 831 829 822 808 799 798 800 802 803 804 805 804 804 804 804 805 807 808 808 807 809 812 815 817 819 820 822 823 825 825 826 826 826 827 826 826 825 823 822 821 819 818 817 816 815 815 813 813 812 810 810 809 808 807 806 804 803 802 801 800 799 799 798 798 797 796 796 794 793 792 792
824 814 813 818 822 825 820 809 805 809 816 822 825 823 823 823 821 813 804 798 798 800 800 800 801 801 802 802 802 803 804 804 805 806 807 808 810 813 815 817 818 820 822 824 825 825 825 826 826 827 826 825 825 823 822 820 819 817 816 816 816 815 814 813 813 811 810 809 808 807 806 805 804 802 801 801 800 800 799 798 798 797 796 795 794 793 792
822 813 817 829 830 819 808 803 805 808 809 810 813 811 806 808 811 808 803 799 796 795 797 798 798 800 802 802 803 804 804 804 805 806 806 808 811 813 815 817 818 820 822 824 825 825 825 826 826 826 825 825 824 822 821 820 819 817 816 816 816 816 815 814 813 812 811 810 809 808 807 806 804 803 803 802 801 801 800 799 799 798 797 796 795 794 794
819 818 828 835 823 804 799 805 810 811 811 811 812 809 800 797 801 803 801 797 792 792 795 796 797 801 803 802 801 801 803 804 804 805 806 808 811 813 814 816 818 820 822 823 825 825 826 826 825 825 825 825 824 822 821 820 819 817 816 816 816 816 816 815 814 813 812 811 810 809 807 806 805 804 804 803 802 802 801 800 799 798 798 797 796 795 795
819 821 822 819 812 805 803 804 805 805 806 805 807 807 798 790 792 796 796 794 791 791 795 797 798 801 803 801 797 796 800 803 804 805 806 808 811 812 814 816 818 820 822 824 825 826 825 825 825 825 825 824 823 821 820 820 819 817 816 816 817 817 816 815 815 814 813 812 811 809 808 807 806 805 804 803 803 802 801 801 800 799 798 798 797 797 796
819 822 821 818 820 817 805 798 798 798 799 798 800 804 799 789 788 791 792 792 791 792 796 799 799 802 804 800 793 794 799 801 803 806 807 808 811 813 814 816 818 820 822 823 825 825 825 825 825 825 825 824 822 821 820 820 819 818 817 818 818 817 816 816 815 814 814 812 811 810 809 808 807 806 805 804 803 803 802 801 800 800 799 798 798 797 797
818 822 824 822 822 816 804 799 799 797 799 799 799 805 803 792 787 790 790 791 792 793 796 799 799 802 802 797 793 797 800 801 803 806 807 809 811 812 814 816 817 819 821 822 823 824 824 824 825 825 824 823 822 821 820 820 819 819 818 818 818 817 817 816 815 815 814 813 812 811 810 809 808 807 806 805 804 803 802 801 800 800 799 799 798 798 798
816 819 820 815 811 807 802 800 799 798 800 801 807 815 808 792 787 789 790 791 793 793 796 798 798 799 798 795 796 799 800 802 804 805 806 809 811 812 814 816 817 819 821 821 822 822 823 824 824 824 824 822 821 821 821 820 820 819 819 819 818 818 817 816 816 815 814 814 813 812 811 810 809 808 807 806 805 803 802 801 801 801 800 799 799 799 798
811 818 822 817 808 804 802 802 801 801 802 806 815 815 801 788 788 789 789 791 792 793 796 796 794 793 794 796 799 800 801 803 804 805 806 808 810 811 813 815 817 819 819 820 821 822 823 824 823 824 823 821 821 821 820 820 821 820 820 819 818 818 817 816 816 815 814 814 813 812 812 811 810 808 807 806 805 804 802 802 801 801 801 800 799 799 799
810 813 821 822 815 808 808 807 804 803 806 811 812 802 790 788 789 789 789 790 790 792 794 793 791 791 794 797 799 800 801 802 803 805 807 808 810 812 813 815 817 818 818 820 821 821 822 823 823 823 823 822 821 821 820 821 821 821 820 819 818 817 817 816 816 815 815 814 813 812 812 811 810 808 807 806 806 804 803 802 801 801 800 800 799 799 799
813 815 822 826 820 810 807 807 806 805 806 804 800 794 790 790 789 789 790 790 789 791 792 791 792 792 794 798 799 800 801 802 803 805 806 807 810 811 813 815 816 817 818 819 819 820 821 822 822 822 822 822 821 820 821 822 822 821 821 820 819 818 818 817 816 815 815 814 814 813 812 811 809 808 807 806 806 805 804 802 801 801 800 799 799 799 799
812 815 815 814 809 803 802 803 802 800 798 796 795 795 793 790 789 789 789 788 789 790 789 790 791 792 794 797 798 799 801 801 802 804 806 807 809 810 811 813 815 816 817 817 818 819 820 821 822 821 822 821 821 821 822 822 822 821 820 820 820 819 819 818 816 815 815 815 814 813 812 811 810 809 808 807 806 805 804 803 802 801 801 800 799 799 799
806 806 802 797 796 796 797 799 797 795 795 795 795 795 793 790 789 787 786 787 788 789 789 789 790 791 792 795 796 798 799 800 802 803 805 806 808 809 810 812 814 815 816 816 818 818 819 821 821 820 821 821 821 821 822 822 821 821 820 820 820 819 819 818 817 816 815 815 814 813 812 811 811 810 809 808 807 806 805 804 803 802 802 801 800 800 799
802 800 796 794 795 795 794 795 795 794 794 793 792 793 792 789 787 785 785 786 786 787 788 788 789 790 791 792 795 797 797 799 800 802 804 805 807 808 810 811 813 814 815 816 817 817 818 819 820 819 820 821 820 821 821 821 821 821 821 820 820 819 819 819 818 817 816 815 815 814 813 812 811 810 810 809 808 807 806 805 804 804 803 803 802 801 801
807 803 796 794 795 795 793 792 791 790 791 790 789 791 791 788 786 785 784 784 785 786 787 787 787 788 789 791 794 795 796 797 799 801 803 804 806 808 809 810 812 813 814 815 815 816 817 817 818 819 819 819 820 820 821 821 821 821 821 820 819 819 819 819 818 818 817 816 815 815 814 813 812 811 811 810 809 808 807 806 805 805 804 804 803 802 802
804 800 793 789 790 791 789 789 789 788 788 787 786 787 788 787 786 785 784 784 785 785 785 786 786 787 788 790 792 793 794 796 797 799 801 803 805 807 808 809 811 812 813 813 813 814 815 816 817 818 818 818 819 820 820 820 820 820 820 820 820 819 819 818 818 818 817 817 816 815 815 814 814 813 812 811 811 811 810 809 808 807 806 805 805 804 803
800 794 788 786 788 788 785 784 785 785 785 785 785 785 785 784 784 784 784 784 784 783 784 784 785 786 787 788 790 791 793 794 796 798 800 801 803 805 807 808 810 810 811 812 812 813 814 814 816 817 817 818 818 819 819 820 819 819 820 820 820 819 818 818 818 817 817 817 816 816 815 815 815 815 814 813 813 813 812 811 810 809 808 807 806 805 805
798 792 787 786 790 791 785 782 784 784 783 784 784 783 783 782 782 782 782 782 783 783 783 783 783 785 785 787 789 790 791 793 795 797 798 800 802 804 805 807 808 809 810 811 811 812 813 813 815 816 816 817 817 818 818 819 819 819 819 818 819 818 817 817 817 817 816 816 816 816 815 815 815 815 815 815 814 814 814 813 811 810 809 808 808 807 806
793 788 786 786 789 791 786 783 783 782 781 782 782 781 780 779 779 779 779 779 780 781 782 782 783 783 783 785 788 789 790 792 794 796 798 799 801 802 804 805 806 807 809 809 810 811 812 812 814 815 815 816 816 817 817 818 818 818 818 817 817 817 816 817 817 817 816 816 816 816 815 815 815 814 814 815 815 814 814 813 812 811 810 809 809 808 807
791 788 786 786 787 787 785 783 782 781 780 781 780 778 777 777 777 777 777 776 777 778 780 781 782 782 782 784 786 788 789 791 793 795 797 798 799 801 802 803 804 805 806 808 809 810 811 812 812 813 814 815 815 815 816 817 817 817 817 817 816 816 816 816 817 817 816 816 816 816 815 815 814 813 813 813 814 814 814 813 813 812 811 810 810 808 807
791 788 786 785 784 784 783 781 780 779 779 778 777 777 776 776 776 775 774 774 774 775 776 778 780 781 781 783 785 786 788 790 792 794 796 797 799 800 801 802 803 804 805 806 807 808 809 810 811 812 813 813 814 814 815 816 816 817 817 816 816 816 816 816 816 816 816 815 815 815 814 814 814 813 813 812 812 813 813 813 813 813 812 811 811 809 808
788 786 785 784 782 781 781 780 778 776 775 774 775 775 774 775 775 774 773 772 772 772 774 776 778 779 780 781 783 785 786 788 791 793 794 796 797 798 799 800 801 802 803 804 805 806 807 808 809 811 811 812 812 813 814 815 815 816 816 816 816 816 816 816 815 815 815 815 815 814 815 815 814 814 813 813 813 812 812 812 812 812 811 811 811 810 809
784 783 783 783 782 780 778 776 775 773 772 772 773 772 772 773 773 772 771 771 771 771 773 774 775 778 779 780 782 784 785 788 790 792 793 793 794 796 797 798 799 801 802 803 804 805 806 807 808 809 809 810 811 812 813 813 814 815 815 815 815 815 815 816 815 814 814 814 814 814 814 814 814 814 814 813 813 812 812 811 811 810 810 810 810 810 809
780 779 779 780 781 778 775 773 771 770 770 771 771 770 770 770 770 770 769 769 769 770 771 772 774 776 777 779 781 782 784 786 788 789 790 791 792 794 795 796 798 799 800 801 802 803 805 806 806 807 808 809 809 810 811 812 813 813 814 814 814 814 814 815 815 814 814 814 814 814 814 814 814 814 814 813 813 812 812 811 811 810 810 810 810 809 808
777 776 775 774 774 773 771 770 769 768 768 769 769 768 768 768 769 768 767 766 767 769 770 771 773 774 775 777 779 780 782 784 785 786 788 789 790 792 793 794 796 797 798 799 800 801 802 803 804 805 806 807 808 809 810 810 811 812 812 813 813 813 813 813 814 814 814 814 814 814 814 814 814 813 813 813 813 812 811 811 811 810 809 809 809 808 808
774 773 772 771 770 769 769 768 767 766 765 766 765 764 764 766 767 766 765 764 765 766 767 768 771 772 773 775 776 777 779 781 782 784 785 787 788 790 791 793 794 795 796 797 798 799 800 801 801 802 804 805 806 807 808 809 809 810 811 811 812 812 812 812 813 813 813 813 813 813 814 813 813 813 812 812 812 812 811 811 811 810 809 808 808 808 807
772 771 770 768 767 766 765 764 764 763 762 762 762 761 761 763 764 764 763 762 762 763 764 766 768 769 770 772 773 775 777 778 780 782 783 784 786 788 789 791 792 792 793 794 795 796 797 798 799 800 801 803 804 805 806 807 808 808 809 809 810 810 811 812 812 812 812 812 812 812 812 812 812 812 812 812 811 810 810 810 809 809 808 808 807 807 807
772 769 767 764 762 762 762 761 761 761 761 760 760 759 759 760 761 761 760 761 761 762 763 764 766 767 768 769 771 773 775 776 778 779 781 782 784 786 787 789 789 790 791 792 792 794 795 796 797 798 799 801 802 803 804 805 806 806 807 807 808 808 809 810 811 812 812 811 811 811 811 811 811 811 811 811 810 809 809 809 808 808 807 807 807 806 807
772 770 768 765 763 762 762 761 760 760 759 759 758 757 757 758 758 758 758 758 759 760 761 762 763 764 765 767 769 771 773 774 776 777 779 780 781 783 785 786 787 788 789 790 791 792 793 794 795 796 797 799 800 801 802 803 804 804 805 805 806 807 807 808 810 810 810 810 810 810 810 810 810 809 809 809 809 809 808 808 807 807 807 806 806 806 806
771 770 768 766 764 764 763 761 759 759 758 758 757 756 756 756 757 757 756 756 757 758 758 759 760 762 763 765 766 768 770 772 773 774 775 777 779 780 782 783 785 786 787 788 789 790 791 792 793 794 795 796 797 799 800 801 802 803 803 803 804 805 806 807 808 808 808 808 808 808 809 809 808 808 808 808 808 808 808 807 807 806 806 805 805 804 804
769 768 766 764 764 763 761 760 760 759 759 758 757 756 755 755 755 755 755 755 755 755 755 756 758 760 762 762 763 765 767 768 769 770 772 774 775 777 779 781 782 783 784 785 786 787 788 790 791 792 793 794 795 797 798 799 800 801 801 802 803 803 804 805 805 805 806 806 806 806 807 807 807 807 807 807 807 806 806 806 806 805 805 804 803 803 802
768 767 765 764 763 762 760 760 759 758 758 757 756 755 755 755 754 754 754 753 753 753 753 754 756 758 759 760 760 761 763 764 766 767 769 770 772 774 776 777 779 780 781 782 782 784 785 786 787 789 790 792 793 794 795 797 798 799 799 800 801 801 802 803 803 803 804 804 804 804 804 805 805 805 805 806 805 805 804 804 804 804 803 803 802 802 801
767 766 765 763 762 761 760 759 758 757 756 756 755 755 754 754 753 752 752 751 751 751 751 751 752 753 755 756 756 757 759 761 762 764 766 767 769 771 772 774 775 776 777 778 778 780 781 782 784 785 787 788 790 791 792 794 795 797 797 798 799 799 800 800 801 801 801 802 802 802 803 803 804 803 804 804 803 803 803 803 802 802 802 801 801 801 800
766 765 764 763 762 760 759 758 757 756 755 753 753 753 752 752 752 751 750 749 749 750 750 749 749 750 751 753 753 754 755 757 759 761 763 764 766 768 769 770 771 772 773 774 775 777 778 779 780 782 783 784 786 787 788 790 792 794 795 796 796 797 798 798 799 799 799 800 800 801 801 801 801 801 801 801 801 801 801 801 801 801 801 800 799 799 798
764 763 763 762 760 759 757 756 755 754 753 752 751 750 749 749 749 749 748 747 747 748 748 748 747 748 749 750 750 751 752 753 755 757 759 761 763 765 765 766 767 768 769 771 772 774 775 776 777 779 780 781 783 784 785 787 789 790 792 793 794 795 795 796 796 797 797 798 798 798 799 799 799 799 799 799 799 800 800 800 800 800 799 799 798 798 797
763 762 761 760 759 758 756 754 753 751 751 750 748 747 746 745 746 746 745 744 744 745 745 746 746 746 746 747 747 748 749 750 752 754 756 759 761 762 763 763 764 766 767 769 770 772 772 773 774 775 776 777 779 780 781 783 785 787 788 789 790 792 793 793 793 794 794 795 796 796 797 797 797 798 798 798 798 798 798 798 798 798 797 797 797 796 796
762 761 760 758 757 756 755 753 751 749 748 747 745 744 743 743 742 741 741 741 741 742 743 744 743 743 743 744 745 746 747 748 750 752 754 756 758 759 760 761 762 763 765 766 768 769 770 770 771 773 773 774 775 776 778 779 781 783 784 785 787 788 789 789 790 791 791 792 793 794 794 795 795 795 796 796 795 796 796 796 797 796 795 794 794 794 794
761 760 758 757 756 755 753 752 750 748 746 745 743 741 741 740 739 739 738 739 739 739 740 741 741 741 741 743 744 745 746 747 748 750 752 753 754 756 758 759 760 762 763 763 765 766 767 767 768 769 770 771 772 773 774 776 778 779 780 782 783 785 785 786 787 788 789 790 791 791 792 792 792 792 793 793 793 793 794 795 795 795 794 792 791 792 792
761 759 757 755 754 753 752 750 748 747 745 743 741 740 739 738 737 736 736 736 737 737 738 740 740 740 740 741 742 742 743 744 746 749 750 752 753 754 755 757 758 760 760 761 762 764 765 766 766 766 767 768 769 770 771 773 774 776 777 779 780 781 783 783 784 785 786 787 787 788 788 788 789 789 789 789 790 791 792 792 793 792 791 790 789 790 790
760 758 756 754 753 751 750 748 746 745 743 741 739 738 737 736 735 734 733 733 734 734 735 737 738 738 739 740 741 741 741 742 744 746 747 749 751 753 754 755 757 758 759 759 761 762 764 765 765 765 765 766 767 768 769 771 772 773 775 776 777 779 780 781 782 782 783 784 784 785 785 785 785 785 786 786 787 788 789 790 790 790 789 788 788 788 788
758 756 755 753 751 750 748 746 745 744 742 739 737 736 735 734 733 732 731 731 731 732 732 733 734 735 737 739 741 741 741 742 743 744 744 745 748 751 753 754 755 756 757 758 759 761 762 763 763 763 764 764 765 766 768 769 770 772 773 774 775 777 778 779 779 780 781 782 782 783 783 783 784 784 784 784 785 786 786 787 788 788 788 788 787 787 787
755 754 753 751 750 748 747 746 745 743 741 738 736 734 733 733 732 731 730 730 730 730 730 732 733 734 735 737 739 741 742 743 744 744 743 744 746 748 750 752 753 754 756 757 758 759 760 760 761 761 762 762 763 765 767 768 769 770 772 773 774 775 776 777 778 779 780 781 781 781 781 782 782 783 783 784 784 784 784 785 786 786 786 787 787 786 786
753 752 750 749 748 747 746 745 744 742 740 738 736 735 733 733 732 730 729 729 729 729 730 731 732 733 734 736 737 740 742 743 744 744 744 745 745 747 749 750 752 753 754 756 756 757 758 758 759 760 761 761 763 765 767 768 769 770 771 772 773 774 774 775 776 777 777 778 778 779 779 780 780 781 782 782 782 783 783 783 784 784 784 784 784 784 784
751 749 748 747 746 746 745 745 743 742 740 739 738 737 736 734 733 732 731 730 730 729 730 731 732 733 734 735 737 738 739 740 742 744 744 745 745 746 748 750 750 751 752 754 755 756 757 758 758 759 760 762 764 765 766 767 768 769 769 770 771 772 773 774 775 775 776 776 776 777 777 778 779 780 780 781 781 781 782 782 782 782 782 782 782 782 781
748 747 746 745 744 743 743 743 742 741 740 740 740 740 739 737 736 734 734 733 732 731 731 732 733 733 734 735 736 737 738 738 739 741 743 744 745 746 747 749 749 750 752 753 754 756 757 758 758 759 761 762 764 765 766 767 768 769 769 771 772 772 773 774 774 775 775 776 776 777 777 777 778 779 779 779 779 780 780 780 781 780 780 780 780 780 780
746 745 744 742 741 741 740 740 740 740 740 739 739 740 740 739 738 737 735 735 734 734 733 734 734 735 735 735 736 737 738 739 739 740 742 744 745 745 747 748 749 750 752 753 754 756 757 758 759 760 761 763 764 765 766 767 768 769 770 771 772 772 773 773 774 774 775 775 775 776 776 777 777 778 778 778 778 778 779 779 779 779 779 779 779 779 779
745 744 742 741 740 739 738 738 738 739 739 738 738 739 738 738 738 738 736 735 734 732 732 733 734 734 735 735 736 737 738 739 740 741 742 743 744 745 747 748 749 751 752 753 754 756 757 758 760 761 762 763 764 765 766 767 768 768 769 770 771 772 772 773 773 774 774 774 775 775 776 776 777 777 778 778 778 778 778 778 778 778 778 778 778 778 778
743 741 740 739 738 737 736 735 735 736 736 737 737 737 737 736 736 736 735 734 733 731 730 731 732 733 734 734 735 736 738 739 740 741 742 743 744 746 747 749 750 751 752 753 754 756 757 758 760 761 762 763 764 765 766 767 768 769 770 770 771 772 772 773 774 774 775 775 776 776 776 776 776 777 777 777 777 777 777 778 778 777 777 777 776 776 776
Wind_Speed
6 7 7 6 6 6 6 6 5 5 5 6 7 8 5 2 6 7 6 6 8 8 9 7 4 3 3 3 4 4 4 5 4 5 5 6 5 5 5 5 4 3 2 3 6 9 10 9 9 8 9 10 11 12 13 14 15 14 12 11 10 10 10 10 9 9 9 9 8 8 7 7 6 7 7 8 8 8 8 8 8 8 8 8 9 10 11
6 6 7 6 7 8 7 9 7 5 6 7 7 6 4 2 6 9 8 10 12 11 9 7 3 2 2 2 3 3 5 6 6 6 6 5 5 5 4 3 3 2 1 4 7 9 9 9 8 8 8 9 11 12 13 14 15 14 12 11 10 10 10 10 9 9 9 8 8 8 8 8 8 9 9 9 8 8 8 8 7 7 7 7 7 9 9
6 5 6 6 6 8 8 9 5 3 4 4 4 3 2 2 5 7 6 9 11 8 4 2 1 2 3 4 5 5 6 6 6 6 5 5 5 4 3 3 2 2 2 5 8 9 8 8 7 7 7 9 10 11 13 13 14 15 12 10 10 10 9 9 9 9 8 8 8 8 8 9 10 10 10 8 8 9 8 8 7 6 6 7 6 5 7
5 2 5 6 7 9 9 8 5 4 4 2 3 3 5 5 3 2 3 7 7 1 2 1 3 4 5 6 5 5 5 4 5 6 5 5 5 3 3 3 2 2 3 5 7 8 7 7 6 6 7 8 10 11 12 13 14 14 12 11 10 10 8 8 8 8 8 8 8 8 9 9 10 11 9 8 8 8 8 8 7 6 6 7 6 2 4
5 2 4 7 9 9 6 4 4 5 5 3 2 3 6 8 6 3 3 5 4 3 1 2 3 5 5 5 4 4 4 4 4 5 5 5 3 2 2 2 2 2 3 4 6 7 6 6 6 6 7 8 10 11 12 12 13 13 12 11 11 10 9 8 8 8 8 8 8 8 9 10 10 10 9 8 8 8 8 8 8 7 7 7 8 6 2
7 5 5 8 9 6 2 1 1 2 4 4 4 5 7 10 10 7 8 7 5 2 3 4 3 3 3 2 2 2 3 4 4 4 4 3 1 2 3 3 2 1 1 3 5 6 6 6 6 6 6 7 9 11 11 11 12 12 12 12 11 10 9 9 8 8 8 8 8 8 9 10 10 9 9 10 9 8 7 8 8 8 8 7 8 9 7
7 6 6 7 6 4 3 1 0 1 3 4 5 8 9 9 12 13 12 11 10 7 5 4 3 2 0 1 3 3 3 4 4 4 3 2 3 4 4 4 3 2 1 2 4 6 6 6 6 5 6 7 9 10 10 10 11 11 11 12 11 10 10 9 9 8 8 8 9 9 10 10 9 9 10 10 9 8 7 7 7 7 7 7 7 8 8
6 5 4 4 5 6 3 1 3 1 2 4 5 9 8 6 9 12 11 11 10 7 4 4 2 1 1 3 5 5 4 4 4 4 3 2 4 4 4 4 4 3 1 1 4 5 6 6 5 5 6 7 9 9 9 9 10 10 11 11 11 10 10 9 9 8 8 9 9 10 10 9 9 10 10 10 9 8 7 6 6 6 7 7 7 7 7
5 6 6 5 7 7 2 3 3 2 2 1 3 6 5 2 4 7 8 9 9 6 3 3 2 2 2 5 5 5 5 3 3 3 2 3 5 5 5 5 4 4 3 2 2 4 6 6 5 5 6 7 8 8 8 8 9 9 10 11 10 10 9 9 8 8 8 8 9 9 9 9 10 10 10 10 9 8 7 7 6 7 6 6 6 7 7
4 6 6 5 7 6 1 3 3 2 2 2 3 7 5 0 1 3 5 7 8 4 1 3 4 3 4 5 1 6 6 2 2 2 3 6 7 6 6 6 6 6 5 3 1 2 5 5 5 5 6 6 8 8 7 7 8 9 9 10 10 9 9 8 8 7 7 8 8 9 9 10 10 11 10 10 9 8 7 7 6 6 6 5 6 6 7
5 6 6 5 5 3 3 4 2 2 1 2 4 6 2 3 2 1 3 5 5 2 2 4 5 4 4 3 3 7 6 3 2 3 5 7 7 7 7 7 6 7 6 4 1 1 3 4 4 6 6 6 8 8 7 6 8 8 8 9 9 9 9 8 8 7 7 7 7 8 9 9 10 11 10 10 10 9 7 7 7 6 5 5 5 6 6
6 6 6 5 5 3 3 4 3 2 1 2 5 5 1 3 2 1 1 3 2 1 3 4 5 4 4 2 5 7 6 4 2 3 5 7 8 8 7 7 7 7 6 4 1 1 3 4 4 5 6 6 8 8 6 6 8 8 8 8 8 8 8 7 7 7 7 7 7 7 8 8 9 10 10 10 10 9 7 7 7 7 6 5 5 5 6
6 6 6 6 5 3 5 6 3 2 2 3 4 4 3 3 3 1 0 2 1 3 4 4 3 2 1 4 6 6 4 2 2 3 5 7 7 7 8 9 9 8 6 4 1 2 3 3 3 4 5 6 7 7 5 6 8 7 7 7 7 7 7 7 6 7 7 7 7 7 7 8 8 9 9 9 10 9 7 7 7 7 6 5 5 5 5
4 4 4 6 4 2 3 4 0 3 4 3 3 4 4 4 3 1 1 1 2 4 4 3 3 1 5 5 5 5 3 2 3 4 6 7 7 6 8 10 9 7 6 4 2 1 1 2 2 3 5 6 7 6 5 5 7 7 7 7 7 7 7 7 6 7 7 7 7 7 7 8 8 9 8 8 9 9 7 6 6 6 6 6 5 5 5
3 3 5 5 3 1 2 3 3 4 3 3 5 5 4 4 4 2 2 1 2 4 4 4 4 1 3 4 4 3 3 2 3 5 6 7 7 8 8 9 9 7 5 4 3 2 1 2 2 3 4 5 6 6 5 4 5 6 6 7 7 7 7 7 7 7 7 7 7 7 8 8 9 9 9 9 9 9 8 7 6 6 6 6 6 6 6
3 4 4 2 1 2 2 4 2 2 4 5 6 7 6 4 5 4 3 3 3 5 4 4 5 4 3 4 4 3 4 4 4 5 6 7 7 8 8 8 8 7 5 4 3 3 2 2 3 3 3 4 5 5 4 3 4 5 6 6 7 7 7 7 7 7 7 7 7 7 7 8 9 9 10 9 9 9 9 8 8 7 7 7 7 7 7
4 5 4 3 4 3 2 4 5 6 7 6 6 8 8 6 6 5 5 4 3 6 6 5 5 5 5 4 4 4 4 5 5 6 6 7 7 7 7 7 8 7 5 3 3 4 3 3 3 3 3 3 4 4 2 1 2 4 5 5 6 6 7 7 7 7 7 7 7 7 7 7 8 9 10 10 10 10 9 9 9 9 9 9 8 8 8
4 6 7 7 7 6 5 5 6 7 8 8 7 7 8 8 7 7 6 5 4 6 7 6 5 5 5 5 5 4 4 5 6 6 6 6 7 6 7 8 8 7 5 4 4 4 3 4 4 4 3 2 3 2 1 1 1 2 3 4 5 5 5 6 6 6 6 6 6 6 6 6 7 9 10 11 11 11 10 9 9 8 9 9 8 8 8
3 4 5 5 6 6 7 8 8 8 9 8 6 5 6 8 8 8 7 6 5 5 7 7 6 5 5 5 5 5 5 5 6 7 7 7 7 7 7 7 8 8 6 5 5 4 3 3 3 3 3 3 2 1 0 2 1 1 2 3 4 4 4 4 4 5 6 5 5 6 7 7 7 8 9 10 11 12 12 11 10 9 9 9 8 8 9
7 7 7 7 7 8 9 9 7 6 7 7 5 5 6 7 8 9 8 6 5 5 7 8 7 6 5 5 5 5 5 5 6 7 7 7 7 7 7 7 8 8 7 6 5 4 3 3 2 2 3 3 2 1 1 2 3 1 0 2 3 4 3 3 3 3 4 4 4 5 6 7 8 9 9 9 10 12 13 12 11 10 10 9 9 9 10
8 10 10 9 8 8 9 8 6 5 6 7 7 7 8 8 8 8 8 8 7 7 7 8 7 7 6 6 6 5 5 5 5 6 7 7 7 7 7 8 8 9 8 7 5 4 4 3 2 3 4 3 3 3 2 2 3 2 1 1 2 3 2 2 2 2 2 3 4 4 5 5 7 9 10 10 9 9 11 13 12 11 10 10 9 9 10
8 7 7 7 6 7 7 6 6 7 7 7 8 9 9 9 8 8 9 9 9 8 8 7 7 7 6 7 7 6 5 5 6 7 7 7 7 7 7 8 8 9 9 8 7 6 5 4 4 4 4 4 4 4 3 3 3 3 3 2 2 2 1 2 3 3 2 2 3 3 4 4 4 4 6 10 11 10 9 12 14 13 12 11 10 9 8
9 9 9 9 8 8 9 9 10 10 8 8 9 11 11 10 8 7 9 10 10 9 9 9 9 8 7 8 8 6 5 6 6 6 7 7 7 7 7 7 8 10 10 9 9 8 6 5 5 5 5 4 4 4 4 3 3 3 4 4 3 2 1 2 3 3 2 2 2 2 3 4 3 2 4 5 8 10 11 11 13 13 13 13 12 12 10
11 12 12 11 9 9 11 12 12 10 10 10 11 12 11 9 7 7 9 11 11 10 9 9 10 9 8 9 10 8 6 7 7 7 7 7 6 6 7 8 8 9 10 10 10 9 8 7 6 6 5 5 5 5 4 4 3 3 3 4 4 3 1 0 1 2 2 2 2 2 2 2 3 3 2 3 4 5 7 9 11 12 13 13 12 12 12
11 11 12 12 12 11 11 12 12 12 12 12 11 10 9 8 8 8 9 10 12 11 9 9 11 11 10 10 11 9 8 7 7 7 7 7 7 7 7 8 8 8 9 9 9 9 9 8 7 6 6 6 6 6 5 5 4 4 4 4 4 3 2 2 2 2 1 1 1 1 2 2 2 3 4 3 3 3 3 3 3 6 9 11 12 11 11
11 11 12 13 13 12 11 12 11 12 12 11 8 8 8 7 8 9 9 10 12 12 11 9 11 12 12 12 12 11 9 8 8 8 8 8 8 8 9 9 8 8 8 8 9 9 9 9 8 8 7 7 6 6 6 5 5 5 4 4 4 4 3 3 3 2 1 1 1 0 1 2 2 2 3 4 4 3 2 3 2 2 1 6 10 10 11
11 11 11 13 12 12 12 11 11 11 11 10 9 10 10 8 7 8 8 9 11 12 11 10 11 13 13 12 12 12 10 9 9 9 9 9 9 10 10 9 9 8 8 8 8 8 9 9 9 9 8 8 7 7 7 6 6 5 5 4 5 5 4 4 5 4 2 1 1 0 0 0 0 1 2 2 2 3 4 3 2 1 2 2 5 8 10
12 11 11 11 12 12 13 13 13 13 12 11 12 11 9 8 7 8 8 9 10 10 10 10 10 12 13 13 13 12 11 11 10 10 10 10 10 10 10 10 9 9 9 9 9 9 9 10 10 9 9 8 8 8 7 7 7 6 6 5 5 5 5 5 6 4 2 1 1 1 0 0 1 0 1 2 2 2 2 3 3 3 3 2 2 5 8
11 11 11 11 12 13 14 14 14 13 12 12 13 11 8 7 7 7 8 9 9 9 10 11 11 12 13 14 15 14 13 13 13 12 11 11 11 10 10 10 10 9 9 10 9 9 10 10 10 10 9 9 9 9 8 8 8 7 7 6 5 5 4 5 5 4 3 2 1 1 2 2 2 2 2 1 1 1 1 2 3 3 3 3 2 3 4
11 11 11 11 12 13 14 13 13 13 12 12 12 11 9 7 7 8 9 9 9 9 11 12 12 13 14 15 16 16 15 14 14 13 12 11 11 11 11 10 10 9 10 11 11 11 11 10 10 10 10 9 10 9 9 8 8 8 8 7 6 5 4 5 5 5 4 4 3 3 4 4 4 3 3 2 2 2 1 1 1 2 2 2 2 2 2
12 12 13 12 12 13 14 13 12 12 11 11 11 11 9 8 8 9 9 7 8 9 11 12 13 13 15 16 16 16 16 15 14 14 12 11 11 11 11 11 11 11 11 11 11 11 11 10 10 10 10 10 10 10 9 9 8 8 8 8 8 7 7 7 7 7 5 4 4 4 5 5 4 3 3 3 3 3 2 2 2 2 2 2 2 2 3
14 13 13 12 11 11 11 10 9 10 10 10 11 11 9 8 9 9 8 7 8 9 10 11 12 14 15 16 16 16 16 15 15 14 13 12 12 12 12 12 13 13 12 10 9 9 9 9 9 9 10 10 10 10 10 9 9 8 8 8 8 8 8 9 9 8 7 6 6 5 5 5 4 4 4 4 3 3 3 2 3 3 2 3 3 1 2
12 11 11 11 9 9 10 8 7 8 8 8 8 8 7 7 7 7 7 7 8 9 10 12 14 15 16 15 15 16 16 15 14 14 14 14 13 13 12 12 12 13 12 11 9 8 8 9 8 8 9 10 11 11 11 10 10 9 9 8 8 8 8 9 10 10 9 8 8 7 6 5 5 4 4 4 4 4 3 3 4 4 4 4 4 2 1
10 10 11 12 10 10 10 9 8 7 7 7 7 6 6 6 7 8 9 9 9 11 13 13 13 14 14 15 16 16 15 13 12 13 15 15 15 15 13 12 12 13 12 12 11 10 10 9 9 9 9 10 11 12 12 12 11 10 9 8 8 8 9 10 11 11 10 9 9 8 7 7 6 6 5 5 4 4 4 5 5 5 5 6 5 4 4
10 10 11 11 10 9 9 9 8 7 7 7 7 6 6 7 7 8 9 10 11 12 12 11 11 11 12 14 15 15 15 15 15 15 16 16 16 16 15 13 12 12 12 13 13 13 12 12 11 10 10 11 12 12 13 13 12 11 10 9 9 9 9 9 10 10 10 10 9 9 9 8 7 6 6 6 6 6 6 6 6 6 7 7 7 6 5
9 9 8 8 8 9 8 6 6 5 6 6 7 7 7 8 9 10 11 11 12 13 11 11 13 13 13 14 15 16 17 17 17 17 17 17 17 16 15 15 14 13 13 13 15 16 16 16 15 14 12 13 13 13 14 15 13 11 10 10 10 10 10 10 10 10 10 10 10 10 9 8 8 7 7 7 7 6 6 6 6 6 7 7 7 7 6
8 8 7 7 8 8 8 6 6 5 5 7 7 8 9 10 10 11 12 11 11 12 13 13 15 15 15 16 17 17 17 17 17 17 17 17 17 16 15 15 14 14 13 12 14 17 18 18 18 17 16 15 15 15 16 17 16 13 11 11 11 11 11 11 11 11 11 11 11 10 10 9 9 9 9 9 8 7 6 5 5 6 6 6 7 7 7
7 7 7 7 9 9 8 6 6 6 6 7 8 9 11 12 12 11 12 12 11 12 13 15 16 16 16 16 16 16 16 17 17 17 17 17 16 15 15 14 14 15 14 13 13 15 16 17 17 18 18 18 17 17 19 20 18 15 13 12 11 11 11 12 11 11 11 11 11 11 10 10 10 10 9 9 8 7 6 5 5 6 6 6 6 6 6
7 7 7 8 8 9 9 7 6 6 6 8 10 11 13 14 13 12 13 13 12 12 13 15 15 15 14 13 13 15 17 17 16 16 15 14 14 14 14 15 15 14 13 11 10 10 12 14 15 17 19 20 19 19 20 21 20 18 17 15 14 13 13 12 12 12 12 12 11 11 10 10 10 9 8 7 6 6 6 6 6 6 7 6 6 6 7
7 7 8 8 8 9 10 9 9 9 9 10 11 12 13 13 14 14 13 13 11 9 10 12 13 13 13 14 14 15 15 16 16 16 14 12 12 12 12 13 13 13 12 11 10 9 10 13 14 15 18 20 21 21 21 21 20 20 20 19 17 15 14 14 13 13 13 12 12 11 11 10 10 9 8 8 8 7 7 7 7 7 8 8 8 8 9
8 10 11 10 9 9 9 10 11 12 12 11 12 13 13 13 13 14 14 12 9 6 7 10 13 14 14 14 15 14 11 11 14 15 14 12 11 10 9 8 8 9 9 8 6 6 9 12 14 14 15 17 19 22 22 22 21 22 22 21 19 16 15 15 15 14 13 12 12 11 11 11 11 10 9 9 9 7 6 6 8 9 11 11 11 11 11
11 12 12 11 10 10 10 10 11 12 13 13 13 12 12 13 14 14 14 12 10 9 9 11 13 13 13 12 12 11 8 7 9 11 12 12 12 10 8 6 6 6 5 3 2 3 6 9 12 14 14 14 16 19 21 22 22 23 23 22 20 17 16 15 15 15 15 14 13 13 13 13 12 12 11 11 10 7 6 6 8 10 13 14 13 12 12
13 14 13 12 11 12 12 12 11 12 13 14 13 12 10 10 12 14 14 13 12 11 9 7 10 12 12 11 11 11 9 9 9 9 9 10 10 8 6 5 6 5 2 0 1 2 5 7 9 12 13 13 14 16 19 21 23 23 24 23 21 18 16 15 15 16 16 16 15 15 16 15 15 15 14 13 10 8 7 8 9 12 14 15 14 14 14
13 14 13 13 13 13 12 12 11 12 13 14 14 13 11 10 10 11 12 13 13 13 13 11 11 9 6 6 8 10 9 9 10 10 9 9 8 6 5 5 4 3 2 2 1 2 4 6 7 9 10 11 13 14 15 16 17 19 21 21 20 19 18 18 18 18 17 15 15 16 16 16 16 16 15 12 10 9 9 10 11 12 14 14 14 15 15
12 13 14 15 14 13 12 12 11 12 13 15 15 13 11 10 10 9 10 10 11 12 14 14 12 10 8 7 9 8 6 5 6 8 8 8 8 8 7 6 4 3 2 1 2 3 4 6 8 9 8 8 9 11 10 9 10 12 13 14 14 15 16 18 18 17 15 13 12 12 11 11 12 12 12 11 11 11 11 11 11 12 12 12 13 14 15
13 13 14 14 13 12 11 11 12 13 13 13 12 11 9 8 8 7 6 7 8 9 11 12 12 12 12 12 10 9 8 6 5 7 8 7 7 8 8 7 6 5 5 4 3 2 4 7 7 6 4 3 5 8 8 7 5 5 5 5 5 7 8 9 9 9 10 11 12 12 11 11 12 12 11 11 12 11 11 10 10 9 9 10 11 12 13
13 13 13 13 12 12 11 11 11 11 10 9 8 9 8 6 5 3 2 3 4 6 8 9 10 11 12 15 18 18 15 10 7 7 7 7 7 6 6 7 7 7 8 6 4 4 5 5 3 4 6 8 9 9 8 7 6 6 5 5 5 6 6 7 7 7 8 10 12 12 11 11 10 10 10 10 9 8 8 8 8 8 9 11 12 13 14
13 13 13 13 12 10 9 9 8 7 6 6 8 9 8 5 2 2 3 4 5 5 6 7 9 11 14 16 17 16 15 11 8 7 8 9 10 9 7 6 6 6 6 6 6 6 7 8 9 11 11 12 11 9 7 6 6 6 6 6 5 5 5 5 5 6 6 6 6 6 6 6 7 7 8 8 7 6 7 8 9 9 10 11 11 12 12
14 13 13 13 11 8 8 7 5 3 3 5 8 10 9 5 2 4 5 5 6 7 8 9 11 12 13 13 12 11 9 8 8 10 12 12 12 12 11 10 10 10 10 10 11 11 11 12 12 12 11 11 10 8 7 6 6 5 5 5 4 3 3 1 0 1 1 2 2 1 1 2 3 4 5 5 5 6 6 7 6 7 7 8 8 8 9
13 12 12 12 11 9 9 9 6 3 4 5 7 9 11 9 4 0 2 3 5 6 8 8 9 10 10 10 10 9 8 8 11 14 16 15 14 15 14 13 13 14 14 15 15 15 13 12 12 11 11 10 10 9 9 9 8 8 8 7 7 6 6 5 4 5 5 4 3 3 4 3 1 1 1 1 2 2 2 2 2 4 5 6 6 7 9
12 12 12 13 12 11 11 11 8 6 9 10 11 11 12 12 10 8 7 6 6 6 6 7 7 8 9 9 9 8 9 11 14 16 16 16 16 16 15 15 15 16 16 16 17 16 14 13 13 13 12 12 12 11 10 10 10 10 10 9 8 8 7 7 6 6 6 5 5 4 4 4 4 3 3 2 2 2 1 2 2 4 4 5 6 8 10
13 13 13 13 13 12 13 12 10 9 10 11 11 12 14 14 12 10 9 9 9 7 5 5 7 7 8 9 10 10 11 12 13 14 15 16 17 16 16 16 16 17 17 18 18 18 16 16 15 15 14 14 13 13 12 12 12 11 11 10 9 8 8 7 7 6 5 5 5 4 4 3 3 3 3 2 2 2 3 3 4 5 6 7 8 9 10
Wind_Direction
290 300 297 286 272 270 262 246 225 188 172 171 196 236 257 280 267 284 353 342 294 299 316 321 324 299 268 249 243 244 249 250 249 247 242 241 247 243 225 209 201 212 259 320 331 333 333 334 338 337 338 345 349 350 352 354 355 353 348 343 340 341 340 338 342 339 334 335 334 331 326 322 335 349 342 338 341 335 328 326 318 307 299 281 258 248 246
280 285 288 276 267 275 278 271 253 190 181 198 208 244 266 232 259 279 305 306 292 289 298 304 304 284 275 262 247 239 245 249 250 252 252 253 260 261 245 227 216 217 269 321 326 331 334 335 336 334 337 343 344 347 349 351 353 353 353 353 348 344 344 343 342 341 338 339 339 335 333 334 339 336 329 332 340 336 333 332 323 316 320 312 277 247 239
278 270 275 271 274 283 279 277 270 141 151 225 224 244 271 232 261 274 278 283 281 276 282 290 216 194 223 237 238 240 246 252 254 253 256 263 269 271 256 233 224 230 285 319 328 337 339 336 333 332 337 340 340 344 348 349 352 353 354 356 349 343 345 344 342 343 341 341 342 340 339 339 340 335 329 328 329 331 337 340 334 332 338 332 308 252 234
284 261 268 279 292 288 269 263 256 184 173 226 213 196 202 198 198 190 221 263 280 275 130 181 185 190 219 234 236 242 246 247 254 259 265 272 274 271 252 230 231 261 301 328 337 341 337 336 336 333 336 340 339 344 348 348 350 352 354 355 350 345 345 343 341 343 343 343 343 342 341 339 339 338 336 333 330 331 339 345 345 347 351 349 347 309 234
287 280 286 296 299 290 269 257 257 213 188 199 217 215 212 200 182 179 242 279 333 43 127 240 219 207 225 238 242 258 265 260 258 261 270 281 278 247 212 199 226 274 311 335 343 343 336 336 340 334 333 339 340 343 345 346 349 352 355 357 356 355 355 350 347 346 345 345 345 344 343 340 339 341 343 345 343 339 341 345 350 355 358 3 13 22 59
284 291 301 297 291 292 326 40 300 232 204 202 209 230 227 205 200 231 276 292 305 282 247 265 272 245 238 255 268 283 286 281 278 267 264 273 245 177 166 163 198 251 318 339 344 348 343 339 337 328 327 334 339 340 343 346 350 352 356 0 3 5 4 360 355 352 351 350 347 346 345 342 342 346 350 351 350 348 344 345 354 4 7 10 20 33 56
276 293 303 292 288 320 353 7 172 298 264 233 239 262 257 223 214 234 260 274 278 276 262 259 274 281 255 272 267 255 254 265 276 276 261 224 175 169 165 163 170 175 176 343 352 354 351 345 334 325 331 335 336 338 344 349 351 354 359 5 10 13 9 6 7 5 3 0 356 352 350 348 349 352 354 353 353 354 353 350 354 4 10 16 26 38 51
270 278 269 269 305 331 333 178 142 129 240 232 257 273 266 230 223 234 247 265 280 289 270 238 231 187 206 259 250 229 222 235 251 271 267 189 170 168 161 160 162 161 166 12 7 359 355 351 341 339 345 341 337 341 348 352 353 357 3 7 14 17 11 10 14 13 14 13 8 3 359 356 358 360 358 357 358 357 356 357 0 5 12 21 29 36 44
263 274 263 264 297 306 276 162 156 180 241 253 289 293 290 240 227 239 252 274 291 299 272 218 183 165 230 264 242 182 176 213 240 256 248 158 157 157 149 148 149 145 136 101 44 5 360 4 2 359 354 344 343 348 353 355 356 1 7 10 15 17 13 14 16 14 16 19 16 13 10 6 6 7 5 4 5 3 1 3 7 10 14 21 27 33 36
237 273 279 274 285 294 340 106 128 160 298 314 291 289 295 93 148 246 270 292 305 307 212 175 169 179 238 270 206 123 127 147 194 203 176 154 154 154 149 148 148 145 141 132 94 1 6 18 18 9 359 352 352 355 357 359 0 5 11 13 14 17 16 17 17 16 17 18 19 20 20 18 14 11 10 10 9 6 5 7 9 12 17 22 26 31 32
238 259 270 266 274 308 22 44 82 127 286 289 274 280 287 101 94 285 287 306 314 311 159 162 172 200 249 277 83 97 98 93 133 184 171 159 160 158 155 159 159 154 152 149 140 2 10 18 14 7 1 358 359 0 0 4 7 9 13 13 14 17 20 19 19 21 20 19 21 23 22 21 17 11 10 10 8 9 10 12 14 15 19 26 28 30 33
240 247 263 269 274 309 358 345 347 36 84 232 266 285 12 72 42 18 301 321 336 119 152 168 192 230 272 345 75 88 86 85 125 184 176 167 169 167 163 163 157 158 166 168 156 7 5 3 2 1 356 358 6 6 3 9 14 11 9 12 14 14 19 22 23 27 25 20 20 19 16 13 10 8 9 7 5 7 9 13 19 20 21 28 33 32 33
238 237 257 271 273 319 350 339 348 85 150 221 269 312 3 3 351 36 284 322 73 150 175 195 228 261 47 73 86 96 99 104 138 167 173 172 175 175 168 162 159 168 177 179 193 355 353 340 344 354 352 358 8 9 9 16 16 13 11 13 15 14 18 21 21 23 22 17 15 17 14 9 5 6 9 9 7 5 5 10 17 22 25 29 32 35 35
246 237 252 267 272 343 359 336 22 170 215 254 319 338 334 328 334 354 232 254 151 172 194 220 264 22 93 110 119 120 126 129 133 152 168 172 172 166 158 160 169 180 179 179 211 293 325 306 320 345 348 356 5 9 18 22 17 17 21 20 22 23 21 20 20 19 19 17 16 17 16 14 14 14 13 15 16 13 10 14 17 21 28 28 27 32 33
241 238 234 251 272 111 179 209 177 189 240 326 354 327 311 323 324 300 274 261 195 197 208 224 240 223 131 148 160 155 169 174 148 157 173 179 177 170 164 168 177 187 192 201 230 259 281 288 307 331 341 351 1 8 21 26 21 26 32 30 32 34 29 26 26 25 26 26 24 24 23 22 24 25 24 25 27 27 25 27 29 29 30 30 31 35 34
235 248 227 227 12 60 188 220 233 260 292 336 335 312 303 307 299 284 284 279 219 207 222 229 225 227 210 188 182 188 192 182 170 170 176 186 188 181 177 178 178 187 211 231 240 247 249 271 305 320 324 339 356 9 20 31 31 35 39 38 37 37 36 35 33 34 38 37 32 31 32 29 26 27 27 27 30 33 34 37 40 40 37 35 37 38 37
262 280 284 310 342 342 260 251 277 295 300 301 299 296 293 287 281 277 284 284 231 210 225 232 223 229 232 212 201 207 198 185 184 183 181 189 193 184 180 179 177 190 219 234 243 253 248 250 280 300 306 318 343 6 21 43 43 40 42 40 36 36 38 39 37 37 43 45 40 35 31 27 24 23 23 25 26 29 35 39 42 42 42 42 43 41 38
290 278 268 276 290 290 280 268 268 279 289 287 285 289 287 282 279 274 276 281 250 216 216 222 224 228 228 218 207 206 205 194 187 185 186 190 191 190 187 181 181 195 219 232 239 253 250 247 267 284 276 278 317 358 23 176 87 46 38 34 33 32 33 38 40 37 37 42 44 36 27 23 25 25 25 26 26 24 27 31 34 38 41 40 40 41 39
294 270 240 241 261 268 274 278 273 268 273 274 270 271 281 288 283 272 268 272 256 220 208 216 225 223 217 214 205 194 198 199 190 190 194 192 192 199 197 185 186 198 215 228 232 240 248 252 264 265 237 232 256 340 185 200 191 75 23 16 22 21 16 26 40 42 37 31 31 35 32 27 28 30 29 30 31 27 23 22 23 29 35 34 31 31 30
270 278 274 266 262 259 260 265 268 265 268 273 272 266 275 286 280 269 262 258 243 221 211 215 221 216 206 207 210 199 197 203 200 198 200 198 199 204 199 189 191 202 214 225 227 227 235 243 239 225 219 214 214 222 210 203 202 195 358 358 4 3 359 9 23 34 37 25 20 34 41 38 36 34 28 30 36 35 28 23 21 21 25 27 26 25 26
272 275 276 274 273 266 256 249 250 264 278 286 293 294 290 285 277 264 252 242 234 228 222 214 213 214 204 197 206 207 200 204 207 202 203 203 203 204 197 190 197 209 217 222 224 224 227 223 204 206 209 202 204 212 204 199 208 214 222 277 334 340 345 14 18 16 29 30 25 30 40 50 57 50 38 34 41 43 37 35 37 36 32 28 21 18 24
268 274 286 295 295 284 276 273 276 284 289 284 285 296 296 286 274 259 242 231 225 226 228 219 210 212 205 192 195 204 205 208 210 207 204 204 204 207 202 195 201 213 218 218 220 222 222 212 199 203 207 200 202 206 199 196 207 219 231 240 261 292 322 23 17 357 7 35 31 27 32 43 68 82 64 48 46 48 47 44 45 47 47 44 38 32 31
280 291 298 301 297 287 287 291 289 290 294 288 286 296 300 294 281 257 235 224 216 213 218 217 212 213 205 188 186 196 206 206 206 205 205 205 207 205 201 199 205 211 214 217 218 218 218 212 205 206 206 202 202 202 198 200 209 222 241 249 251 257 268 47 19 346 348 22 21 19 33 32 35 96 124 89 60 51 50 50 50 50 48 47 47 48 50
286 289 291 291 290 286 287 291 292 293 295 293 290 293 298 301 294 263 235 224 219 213 205 204 209 213 203 186 185 194 200 197 200 204 204 208 210 205 201 206 210 210 211 213 215 216 216 212 208 208 207 205 206 203 198 200 212 226 245 256 259 267 271 79 349 321 337 10 6 4 26 27 23 33 93 131 113 79 57 48 45 46 46 44 44 45 49
282 287 292 290 288 287 287 288 286 284 284 284 283 286 292 301 297 275 245 226 222 217 206 198 202 205 200 188 184 190 194 191 194 199 201 201 201 203 208 210 210 209 209 209 211 213 211 207 208 212 211 208 206 206 204 205 212 225 245 258 259 266 272 259 248 262 310 342 335 350 13 19 24 27 32 54 88 125 138 111 50 39 41 39 39 43 46
280 282 285 285 284 282 279 277 275 276 279 280 277 282 288 288 282 272 253 232 223 218 214 208 199 196 196 192 187 191 193 181 173 187 204 206 201 206 213 212 209 210 209 206 210 211 207 207 209 212 216 214 207 205 209 210 213 225 238 245 248 254 267 280 274 258 265 325 330 351 12 8 15 32 38 36 29 37 115 154 174 180 86 37 31 38 44
285 281 278 279 281 278 274 274 277 281 285 285 282 286 292 291 282 270 252 233 222 217 219 218 201 190 191 192 189 188 182 169 168 189 210 214 209 211 213 209 207 209 209 209 212 209 206 211 213 213 218 216 206 203 210 210 213 224 231 235 243 241 239 256 266 259 252 276 277 230 188 296 317 19 30 28 22 25 34 44 40 78 118 77 27 22 29
283 281 277 273 274 277 278 281 283 282 283 284 284 284 288 289 283 269 245 225 215 209 210 210 199 189 187 188 188 184 178 180 191 203 210 213 214 214 212 210 209 211 212 214 215 208 207 213 215 214 218 215 206 205 209 208 212 222 225 231 240 231 217 225 239 241 235 237 236 222 224 257 228 218 338 341 346 4 19 26 21 19 43 65 14 358 15
286 285 281 274 272 273 274 276 277 275 275 279 279 275 270 269 270 264 246 227 214 207 203 200 197 196 193 190 191 192 191 195 203 208 211 213 214 213 210 209 210 215 218 221 220 214 211 214 216 216 217 214 209 207 207 207 213 218 218 223 232 232 221 218 220 222 224 225 225 223 227 237 236 219 219 260 300 308 346 19 17 1 13 32 8 345 12
297 292 288 283 278 274 270 269 269 267 267 269 269 263 257 255 258 261 253 233 214 208 206 197 194 198 198 195 196 199 200 202 206 211 213 212 212 212 210 206 208 216 222 225 225 222 219 218 219 220 218 214 210 207 206 209 212 214 214 217 221 228 231 219 212 217 218 209 208 224 226 223 225 227 229 241 256 261 274 330 331 313 329 2 3 360 16
302 299 291 284 277 272 266 263 264 264 263 263 263 260 254 247 247 255 256 239 219 216 210 200 195 197 199 198 199 202 204 206 209 212 213 212 211 210 207 206 214 222 225 226 225 224 223 224 224 223 221 216 209 204 204 211 214 213 212 211 212 219 223 218 218 226 231 218 211 219 224 220 218 222 230 237 244 251 257 263 271 289 313 323 331 1 14
307 301 292 284 279 275 270 263 262 265 265 263 263 261 256 248 247 252 254 243 229 220 209 200 199 201 201 200 200 200 204 209 212 213 214 212 212 211 209 214 224 232 235 235 231 223 221 226 228 226 222 217 211 205 206 212 217 217 212 209 208 209 208 208 213 222 229 229 225 222 221 221 219 220 228 239 251 259 265 275 280 288 305 310 313 348 27
312 303 295 294 297 296 290 282 274 272 272 272 271 268 264 258 255 258 261 249 226 208 202 205 207 206 202 200 199 200 204 209 212 214 216 215 216 216 214 216 224 232 237 241 238 230 228 231 231 228 223 216 211 209 209 213 218 220 218 213 207 198 194 198 207 214 218 222 226 225 222 222 222 222 226 234 247 258 267 278 284 286 290 293 293 282 273
308 300 296 298 300 298 292 290 288 287 285 284 283 281 276 266 259 261 262 249 225 212 209 208 204 201 200 199 200 200 201 204 211 216 216 217 220 220 217 215 221 228 233 235 233 233 236 235 231 227 223 216 211 208 209 213 218 221 219 216 210 202 195 196 203 211 216 219 220 221 221 223 226 228 230 235 242 253 263 270 278 286 289 290 291 276 250
309 305 302 301 298 292 289 288 287 287 289 290 293 295 288 278 270 268 264 251 239 231 218 197 189 198 204 203 201 198 199 207 216 219 218 219 222 222 219 215 214 219 226 229 229 232 237 238 234 228 220 213 210 209 208 211 217 221 220 218 215 213 209 204 202 208 215 216 216 217 218 220 223 225 230 240 246 252 258 263 271 281 284 287 295 289 262
320 318 317 312 303 296 291 285 279 276 277 283 292 297 294 288 281 273 264 254 247 241 224 197 192 201 205 203 201 201 205 212 218 219 221 223 224 223 222 220 218 221 227 229 231 235 239 240 239 235 222 210 209 210 210 211 215 219 220 219 217 217 218 215 213 215 217 217 218 218 218 221 228 231 237 244 249 253 259 264 272 282 286 290 298 301 289
324 321 323 323 317 310 302 292 287 286 283 282 284 283 284 286 283 274 267 260 254 248 236 216 205 204 204 204 206 206 208 211 214 217 221 225 225 223 222 222 222 225 227 228 232 239 241 240 240 238 227 212 209 213 216 217 218 219 219 220 222 222 221 220 221 222 221 219 220 221 220 223 229 232 234 239 243 248 258 268 277 287 293 297 299 300 302
323 321 321 320 318 317 311 296 283 285 293 294 286 271 265 271 277 276 271 264 257 250 242 229 217 211 210 210 208 206 207 210 212 215 219 222 221 218 218 219 222 227 231 230 229 231 233 235 236 234 228 220 215 217 223 226 224 221 220 222 223 223 224 225 226 228 228 225 224 224 223 225 230 232 234 236 238 241 251 267 283 290 291 294 296 298 302
325 326 327 324 318 315 313 306 293 287 288 287 278 266 257 255 258 265 269 265 254 245 240 234 228 222 217 211 208 209 210 208 205 206 209 210 209 211 218 225 230 232 232 229 219 213 222 233 235 231 229 227 222 219 224 230 228 223 222 222 220 221 226 228 227 229 230 228 225 226 227 230 234 238 240 240 240 242 247 256 269 277 281 285 292 298 303
330 330 329 326 319 313 314 315 312 307 297 283 274 269 264 255 249 249 256 259 253 242 236 235 232 227 221 218 220 220 215 205 200 199 195 191 197 209 223 232 233 229 227 227 223 219 229 240 238 231 230 232 227 222 224 230 229 226 226 226 222 221 225 227 227 229 232 229 226 227 229 232 236 239 241 243 245 249 256 264 270 274 279 285 293 299 303
331 330 327 322 318 314 313 313 312 310 308 300 286 275 268 260 248 241 243 247 239 214 213 227 230 226 224 226 230 229 217 201 199 200 192 182 187 203 218 221 217 215 219 227 235 243 250 254 248 235 228 228 228 226 225 227 226 225 227 227 225 223 226 227 226 228 230 228 225 227 231 235 236 236 237 240 242 243 254 274 281 280 281 286 293 298 300
330 330 326 321 318 316 313 312 310 308 308 308 301 286 272 261 248 241 241 240 223 205 212 231 233 228 228 234 237 233 221 199 194 198 197 191 193 203 210 195 172 173 191 220 273 277 265 261 254 242 231 226 227 228 226 224 224 225 226 227 226 225 225 225 225 226 227 224 222 225 231 234 233 234 238 241 237 231 237 257 270 274 277 281 288 292 295
327 326 322 318 318 318 314 309 308 308 308 310 307 296 281 265 251 243 240 235 219 203 204 232 244 238 231 232 234 232 221 200 186 187 194 197 199 202 197 163 142 143 159 182 319 272 256 249 248 247 241 231 228 228 227 223 222 224 225 224 223 222 223 223 223 226 227 225 224 226 229 229 230 236 241 238 229 226 238 252 263 271 275 279 283 287 290
319 320 319 318 317 315 310 306 308 311 312 312 309 300 287 274 261 248 241 233 214 192 188 210 232 230 214 220 237 239 227 202 187 184 184 183 179 167 142 128 131 126 89 62 41 282 265 248 237 241 245 240 233 230 224 218 217 223 226 227 227 231 235 238 238 238 237 233 230 232 233 233 235 239 241 236 230 233 245 255 266 274 277 277 279 281 284
307 313 318 318 314 310 310 313 314 311 310 311 310 302 290 281 274 262 246 235 218 196 192 201 202 185 177 207 233 231 212 188 183 183 177 166 156 146 136 133 141 151 170 249 271 271 263 250 243 246 255 252 233 219 208 201 208 225 235 239 242 245 247 248 248 247 243 237 234 234 237 240 243 245 243 240 241 243 248 257 269 276 278 278 280 282 285
303 309 315 316 313 312 314 316 313 309 312 317 316 309 299 291 284 274 253 236 223 207 201 202 198 192 192 190 171 147 133 125 130 142 147 145 147 155 162 166 170 182 207 237 263 265 251 250 250 249 241 202 177 174 172 167 172 195 217 231 237 237 238 241 243 240 238 241 244 245 243 245 249 250 248 248 252 257 263 270 274 276 276 278 281 283 285
300 304 310 315 314 313 314 314 312 314 323 331 328 323 323 320 307 293 252 212 208 204 202 203 202 195 181 163 147 142 144 140 127 131 147 151 145 152 171 188 199 208 216 220 219 216 219 212 177 133 124 123 125 129 134 135 138 150 165 173 182 194 207 220 230 233 235 240 243 242 239 241 249 257 262 266 273 279 280 276 272 272 275 276 275 274 276
294 298 305 309 308 305 305 306 310 322 342 347 336 330 334 346 13 54 83 109 128 144 161 170 169 164 161 159 157 159 160 155 144 145 153 147 134 131 140 153 163 170 175 173 170 170 163 145 130 124 123 123 122 124 131 141 152 166 172 172 176 186 203 222 238 245 249 253 252 248 246 252 260 268 275 281 285 281 271 266 265 268 272 273 273 274 278
289 292 298 301 298 293 290 293 296 311 345 340 324 314 313 325 49 91 95 101 111 119 128 138 147 153 159 162 164 168 168 159 147 147 147 140 133 131 131 128 128 133 138 139 138 137 134 131 128 126 126 127 125 120 118 120 125 125 118 111 111 116 117 117 156 255 305 313 311 293 253 259 265 269 273 277 275 272 270 270 268 264 264 270 278 285 287
289 291 293 297 297 293 292 294 289 252 228 238 252 267 283 298 311 244 189 176 155 146 144 145 151 161 168 169 168 164 154 134 128 134 137 136 132 131 129 127 130 136 138 134 127 123 121 121 122 122 123 122 117 111 110 113 115 112 108 103 101 103 103 104 109 117 116 113 122 137 144 150 163 206 273 272 271 283 296 302 293 283 281 285 293 298 297
290 288 289 294 297 294 290 288 277 239 223 225 228 236 253 268 277 274 261 243 223 203 183 169 167 172 174 169 162 152 141 132 129 130 131 130 129 129 130 132 135 136 133 130 126 123 122 123 123 123 124 124 120 118 120 121 119 119 119 117 114 112 109 104 101 104 109 112 115 119 119 112 99 86 77 69 56 34 7 335 323 318 315 312 311 308 306
286 283 281 285 289 287 282 278 266 243 229 229 234 239 244 250 257 263 257 247 245 247 228 182 167 166 164 159 152 144 137 133 131 128 126 125 125 125 126 128 131 132 131 130 128 126 126 128 129 127 125 122 118 114 114 113 111 110 111 109 108 108 109 105 97 92 88 86 86 86 86 87 83 72 59 45 31 12 346 327 321 318 314 311 308 305 302